CSG-1 (44873 NORAD) Tracking and Keplerian Element Data

This shows tracking and keplerian element data for the satellite.

Feedback or suggestion? Click here.




ElementValue
Catalog44873
NameCSG-1
Epoch Orbit456
Epoch Day18.17259629
Epoch Year2020
RAAN204.2613
Inclination97.8093
Eccentricity0.0001501
Argument of Perigee82.917
Mean Anonmoly277.2236
Mean Motion14.81126988
Decay Rate-1.01E-06
L11 44873U 19092A 20018.17259629 -.00000101 00000-0 -64203-5 0 9993
L22 44873 97.8093 204.2613 0001501 82.9170 277.2236 14.81126988 4568

Live tracking and technical data element details for CSG-1 (NORAD 44873). CSG-1 can be tracked NOW for your location showing map with azimuth and elevation plus other details from your city location.

Track the satellite on the map from your city or location and see movement details for azimuth, elevation, latitude, longitude, range, height, and movement on the map or in text.







IsCatalogInMostPopularTable: catalog: 44873, numindb: 7
Update: records affected: 1



GetName: 44873 CSG-1

Hit Count: updated at: Sat, 18 Jan 2020 16:58:58 GMT